This demonstration page uses our WeatherBlox Daily Observations layout. Learn more.

Left ArrowRight Arrow

53.62937, 11.41316

Hourly Observations for April 5, 2016

Temp ( °F °C ) Dew Point ( °F °C ) Humidity (%) Winds ( mph kmh ) Pressure ( in mb ) Visibility ( mi km ) Precip ( " mm )
6:20 am 06:20 Mostly Cloudy 46 8 46 8 100 100 E 3 6 29.74 1007 4 7 N/A
6:50 am 06:50 Partly Cloudy 46 8 45 7 93 93 ENE 3 6 29.74 1007 5 8 N/A
7:20 am 07:20 Partly Cloudy 45 7 45 7 100 100 NE 2 4 29.74 1007 5 8 N/A
7:50 am 07:50 Mostly Cloudy 50 10 48 9 94 94 VRB 1 2 29.74 1007 5 8 N/A
8:20 am 08:20 Mostly Cloudy 50 10 46 8 88 88 ENE 5 7 29.74 1007 30 48 N/A
8:50 am 08:50 Mostly Cloudy 52 11 46 8 82 82 NE 3 6 29.74 1007 30 48 N/A
9:20 am 09:20 Partly Cloudy 54 12 46 8 77 77 NNE 6 9 29.74 1007 30 48 N/A
9:50 am 09:50 Mostly Cloudy 55 13 46 8 72 72 ENE 9 15 29.74 1007 30 48 N/A
10:20 am 10:20 Mostly Cloudy 55 13 46 8 72 72 NE 6 9 29.71 1006 30 48 N/A
10:50 am 10:50 Mostly Cloudy 55 13 48 9 77 77 ESE 3 6 29.74 1007 30 48 N/A
11:20 am 11:20 Cloudy 55 13 48 9 77 77 SE 5 7 29.74 1007 30 48 N/A
11:50 am 11:50 Mostly Cloudy with Light Rain 54 12 50 10 88 88 NE 5 7 29.71 1006 30 48 N/A
12:20 pm 12:20 Mostly Sunny 55 13 52 11 88 88 E 5 7 29.71 1006 7 11 N/A
12:50 pm 12:50 Mostly Sunny 55 13 50 10 82 82 E 7 11 29.71 1006 7 11 N/A
1:20 pm 13:20 Mostly Sunny 55 13 50 10 82 82 E 3 6 29.71 1006 7 11 N/A
1:50 pm 13:50 Mostly Sunny 57 14 52 11 82 82 VRB 2 4 29.71 1006 7 11 N/A
2:20 pm 14:20 Mostly Sunny 57 14 52 11 82 82 VRB 2 4 29.71 1006 7 11 N/A
2:50 pm 14:50 Mostly Sunny 57 14 52 11 82 82 VRB 2 4 29.68 1005 7 11 N/A
3:20 pm 15:20 Mostly Sunny 59 15 52 11 77 77 VRB 2 4 29.68 1005 7 11 N/A
3:50 pm 15:50 Mostly Sunny 59 15 52 11 77 77 W 3 6 29.68 1005 7 11 N/A
4:20 pm 16:20 Mostly Sunny 59 15 52 11 77 77 WNW 3 6 29.65 1004 7 11 N/A
4:50 pm 16:50 Mostly Sunny 59 15 52 11 77 77 SW 3 6 29.65 1004 7 11 N/A
5:20 pm 17:20 Mostly Sunny 59 15 50 10 72 72 VRB 1 2 29.65 1004 7 11 N/A
5:50 pm 17:50 Mostly Sunny 59 15 52 11 77 77 VRB 1 2 29.65 1004 7 11 N/A
6:20 pm 18:20 Mostly Sunny 59 15 52 11 77 77 VRB 1 2 29.65 1004 7 11 N/A
6:50 pm 18:50 Mostly Sunny 57 14 52 11 82 82 Calm 29.65 1004 7 11 N/A

Powered by AerisWeather